Location: Aix-en-Ergny
(50.5839°N, 1.9996°E)
Time: 16:24:23
(UTC+00:00)

Cosmos 2058 Rocket - Pass Details

Date: 23 October 2019
Orbit: 611 x 638 km, 82.5° (Epoch: 20 November)

Event Time Altitude Azimuth Distance (km) Brightness Sun altitude
Rises 04:37:23 0° 347° (NNW) 2,908 6.4 -18.1°
Reaches altitude 10° 04:39:37 10° 345° (NNW) 2,001 5.5 -17.7°
Maximum altitude 04:44:00 65° 264° (W) 689 3.0 -17.0°
Drops below altitude 10° 04:48:24 10° 182° (S) 2,001 5.6 -16.3°
Sets 04:50:39 0° 180° (S) 2,908 6.5 -16.0°
